Vorticity
7 3 1 4 2 5 -7 4 11 -5 6 16 13 13 11 6 11 15 12 4 2 5 1 5 6 3 7 5 12 4 7 8 7 9 12 7 12 9 4 11 6 9 9 6
5 3 2 1 -1 5 5 -1 -1 5 -14 21 9 -0 13 6 7 7 6 14 11 -3 5 3 3 4 6 10 6 8 4 7 9 8 5 5 9 4 7 4 4 5 5 7
-6 5 12 -1 1 -3 2 2 1 -7 0 21 7 17 19 7 6 3 5 10 17 13 1 -0 9 15 9 8 9 8 8 4 10 6 6 6 9 8 5 8 11 8 9 11
19 16 6 25 6 0 2 -0 -1 -2 22 10 18 -2 5 23 14 7 7 6 5 13 15 8 2 3 -1 11 10 7 4 7 7 4 9 10 12 10 8 -0 11 9 11 10
5 35 3 9 27 6 5 9 7 -1 37 -1 9 5 10 0 29 21 20 14 8 17 12 9 10 16 3 0 9 12 10 8 8 7 7 6 7 12 2 7 8 5 5 11
-2 -4 10 11 23 25 23 2 23 32 11 10 6 -2 11 14 12 -1 -8 10 20 1 13 14 23 -6 8 4 4 6 8 10 9 8 9 10 8 9 10 9 13 11 4 4
12 3 5 -3 12 19 6 8 3 2 5 5 22 19 -8 0 11 13 23 22 12 17 14 15 15 2 8 -1 -2 9 6 7 9 11 9 7 10 8 6 5 8 9 6 13
7 21 2 12 11 23 8 2 -10 3 3 10 1 6 13 2 16 14 11 23 6 23 12 6 20 21 9 10 -13 7 5 8 5 7 15 14 5 8 4 8 9 12 9 13
16 4 6 7 5 8 18 4 -10 1 12 8 6 20 9 12 11 8 13 11 13 17 16 6 3 13 11 8 2 4 10 7 4 1 3 4 19 8 6 6 6 2 10 10
17 18 6 13 5 7 -1 14 12 7 -2 1 7 7 -1 8 8 14 13 14 9 8 12 6 9 9 11 19 22 -2 9 5 1 3 3 -3 0 17 10 7 6 6 5 6
5 -1 20 20 19 10 5 8 7 25 4 12 4 10 2 10 9 -4 3 1 4 10 11 16 8 8 16 10 15 18 13 -3 11 7 -1 9 4 -2 10 11 7 5 6 6
12 3 8 9 16 20 8 1 5 -1 7 13 17 8 27 19 6 2 3 1 1 19 11 10 17 8 3 8 26 14 10 16 19 1 3 -26 13 5 7 13 11 8 7 2
26 24 4 14 21 23 13 9 6 12 3 4 -10 2 19 8 9 2 5 2 3 5 5 5 9 18 3 3 8 11 17 14 6 20 6 31 -6 2 9 7 13 12 6 7
2 4 -9 -8 7 1 -7 3 7 7 10 8 0 10 7 5 11 6 5 4 3 7 2 7 8 11 5 4 8 14 8 7 10 9 4 4 11 -1 -17 1 5 14 12 6
12 9 17 4 14 14 22 15 12 9 4 2 20 16 13 19 21 12 0 6 10 -3 3 4 10 9 2 8 8 10 10 12 20 23 23 31 8 23 20 7 2 2 10 14
20 13 22 13 11 7 5 3 0 2 2 6 7 10 16 6 11 6 2 4 7 4 1 8 5 6 9 4 0 6 7 9 6 17 20 10 6 21 12 2 2 6 0 1
7 8 -1 14 5 8 15 -0 15 15 15 12 12 6 8 8 13 9 4 6 3 4 9 9 3 4 3 1 10 15 4 7 13 14 10 5 21 2 -3 -4 27 -9 -6 5
22 8 8 16 6 3 2 11 24 7 15 18 14 23 21 15 12 8 8 7 7 8 10 9 8 6 9 10 7 7 12 8 2 3 4 14 11 5 14 15 5 35 7 10
10 11 -5 5 3 13 22 17 16 5 5 15 7 4 3 1 -1 3 3 4 6 12 14 13 7 8 5 5 5 8 10 8 8 11 13 17 16 14 16 14 4 19 -5 3
14 0 -3 22 6 -1 18 16 14 10 5 10 -1 2 5 20 6 11 7 12 13 7 3 3 18 11 15 7 5 21 15 12 12 7 12 16 14 5 11 31 29 19 21 2
10 9 -2 13 1 26 -2 20 11 -0 3 16 21 14 5 4 8 12 11 10 12 12 14 12 7 12 12 8 15 12 10 6 7 7 16 13 23 18 6 12 27 8 19 21
22 -14 11 10 -5 12 5 13 3 12 1 12 4 6 14 -0 3 11 15 6 10 13 21 19 16 11 13 14 7 9 8 4 7 6 20 22 20 15 9 18 24 13 -1 26
18 14 -10 9 -6 23 5 11 12 -1 10 5 6 10 9 3 7 14 16 12 15 27 23 17 18 17 5 -2 3 8 6 6 8 16 26 33 20 30 32 52 13 16 20 9
11 11 -1 2 5 3 1 8 9 7 7 8 9 10 8 15 19 5 41 34 36 41 28 27 18 10 12 8 11 4 12 14 19 10 29 28 8 51 23 3 25 22 29 43
13 34 7 6 6 18 1 7 7 3 6 11 12 3 11 19 14 26 10 11 14 15 18 19 21 21 19 12 10 15 7 7 8 -7 5 16 31 62 33 12 11 14 10 28
32 33 7 9 5 6 18 3 12 8 8 8 5 16 17 12 20 11 7 10 13 12 11 10 10 8 11 15 18 11 10 -3 -0 10 33 0 31 -7 -24 72 99 65 93 47
Height
3157 3161 3161 3165 3167 3168 3170 3171 3171 3172 3172 3171 3171 3171 3172 3172 3173 3175 3178 3181 3183 3185 3186 3187 3188 3190 3191 3192 3193 3195 3197 3198 3200 3203 3205 3208 3210 3212 3213 3216 3218 3218 3220 3221
3157 3156 3161 3163 3165 3167 3168 3169 3170 3170 3171 3171 3169 3170 3170 3170 3171 3172 3175 3178 3181 3184 3184 3185 3186 3188 3190 3191 3192 3193 3196 3198 3200 3202 3205 3207 3209 3212 3213 3216 3218 3218 3219 3221
3152 3156 3158 3160 3162 3165 3166 3167 3168 3171 3169 3169 3169 3170 3168 3168 3169 3169 3171 3173 3176 3179 3183 3185 3185 3187 3188 3189 3191 3193 3196 3198 3199 3201 3203 3205 3208 3210 3212 3215 3217 3218 3218 3220
3151 3152 3154 3156 3159 3162 3164 3166 3167 3168 3169 3169 3169 3169 3166 3166 3166 3166 3168 3170 3172 3174 3178 3181 3183 3186 3187 3188 3190 3191 3193 3196 3198 3199 3201 3204 3206 3209 3211 3213 3215 3216 3217 3218
3149 3149 3152 3153 3155 3159 3162 3164 3166 3166 3166 3167 3168 3170 3165 3164 3164 3164 3165 3166 3168 3170 3173 3177 3180 3184 3187 3187 3189 3190 3192 3193 3195 3198 3200 3202 3204 3207 3208 3210 3213 3215 3216 3217
3146 3148 3149 3151 3152 3155 3159 3163 3163 3164 3165 3166 3167 3169 3163 3162 3163 3163 3163 3163 3164 3167 3169 3173 3177 3180 3183 3185 3186 3189 3190 3192 3194 3196 3197 3200 3202 3204 3205 3208 3211 3212 3214 3216
3143 3145 3146 3148 3149 3152 3155 3159 3162 3164 3165 3163 3164 3166 3162 3161 3161 3161 3160 3160 3162 3163 3166 3169 3173 3176 3179 3182 3185 3187 3188 3190 3191 3193 3195 3197 3200 3201 3203 3206 3207 3210 3212 3214
3141 3143 3143 3145 3146 3148 3151 3156 3155 3158 3159 3160 3162 3161 3160 3159 3159 3159 3158 3158 3160 3161 3163 3166 3169 3172 3176 3179 3182 3184 3186 3188 3189 3191 3193 3195 3197 3199 3201 3203 3204 3207 3209 3211
3138 3139 3140 3142 3143 3147 3148 3151 3154 3155 3157 3158 3159 3158 3157 3157 3157 3157 3157 3158 3158 3160 3162 3164 3166 3168 3171 3175 3178 3181 3184 3186 3187 3189 3190 3192 3194 3196 3199 3200 3201 3204 3205 3207
3135 3137 3137 3138 3141 3143 3145 3149 3151 3152 3154 3154 3155 3155 3155 3155 3155 3156 3157 3157 3158 3159 3160 3161 3163 3165 3167 3169 3172 3175 3179 3182 3184 3186 3187 3189 3190 3192 3194 3196 3198 3200 3201 3202
3132 3134 3136 3135 3136 3138 3142 3144 3146 3148 3149 3147 3150 3151 3152 3153 3154 3155 3156 3157 3158 3159 3159 3159 3160 3162 3164 3165 3167 3170 3174 3176 3178 3182 3184 3184 3185 3186 3189 3191 3193 3195 3197 3198
3127 3131 3132 3132 3132 3133 3136 3139 3142 3143 3147 3147 3147 3148 3147 3149 3151 3153 3154 3155 3156 3157 3157 3157 3158 3160 3162 3163 3163 3165 3167 3169 3171 3176 3180 3182 3183 3182 3183 3184 3188 3191 3193 3194
3122 3126 3129 3130 3132 3131 3133 3135 3138 3140 3142 3143 3145 3146 3146 3147 3148 3150 3152 3153 3154 3154 3155 3155 3156 3156 3158 3159 3159 3160 3161 3163 3166 3169 3172 3174 3178 3179 3180 3181 3183 3185 3187 3189
3119 3121 3122 3123 3124 3127 3130 3131 3133 3136 3138 3138 3139 3141 3142 3144 3146 3147 3149 3150 3151 3151 3151 3152 3153 3153 3154 3155 3156 3156 3156 3157 3158 3160 3165 3168 3171 3174 3176 3178 3179 3180 3181 3183
3114 3115 3117 3119 3121 3123 3125 3128 3129 3131 3132 3134 3134 3135 3136 3138 3140 3143 3144 3146 3147 3147 3148 3149 3149 3150 3150 3151 3151 3152 3153 3154 3153 3153 3156 3158 3163 3162 3167 3168 3171 3174 3175 3177
3108 3110 3113 3116 3118 3120 3123 3125 3126 3127 3128 3129 3130 3131 3132 3134 3135 3138 3139 3141 3143 3144 3144 3145 3145 3145 3146 3146 3146 3146 3148 3149 3149 3149 3151 3153 3153 3153 3156 3158 3160 3164 3165 3168
3104 3106 3109 3113 3115 3118 3120 3119 3120 3121 3123 3124 3125 3127 3128 3130 3132 3134 3135 3137 3137 3138 3139 3140 3140 3140 3141 3141 3141 3140 3141 3142 3144 3145 3146 3147 3147 3148 3150 3149 3150 3153 3155 3158
3099 3103 3106 3108 3112 3115 3113 3113 3115 3117 3118 3119 3121 3122 3124 3125 3127 3129 3130 3131 3131 3131 3132 3133 3133 3134 3134 3135 3135 3135 3135 3135 3136 3136 3137 3138 3139 3139 3140 3140 3140 3141 3144 3146
3094 3098 3101 3105 3109 3110 3109 3109 3110 3112 3115 3116 3117 3119 3120 3122 3123 3124 3123 3124 3124 3124 3125 3125 3126 3127 3127 3129 3129 3130 3129 3129 3129 3128 3127 3126 3126 3125 3126 3127 3129 3131 3134 3137
3091 3094 3098 3101 3105 3106 3104 3105 3108 3111 3112 3112 3114 3115 3116 3117 3118 3119 3117 3117 3117 3117 3117 3117 3119 3120 3121 3122 3122 3123 3123 3123 3122 3121 3119 3116 3113 3112 3111 3111 3113 3116 3118 3122
3086 3089 3092 3096 3100 3101 3101 3102 3106 3110 3111 3107 3108 3110 3111 3112 3113 3112 3111 3110 3109 3109 3109 3110 3111 3112 3114 3116 3117 3117 3118 3117 3116 3113 3110 3106 3102 3099 3099 3099 3100 3103 3106 3109
3079 3084 3088 3092 3096 3098 3096 3099 3102 3103 3102 3103 3104 3105 3105 3106 3105 3104 3102 3101 3099 3099 3100 3102 3103 3105 3108 3110 3112 3113 3113 3112 3109 3105 3100 3094 3091 3087 3086 3086 3090 3093 3095 3098
3079 3078 3083 3089 3089 3092 3093 3094 3097 3098 3099 3099 3100 3100 3100 3100 3099 3096 3094 3092 3090 3090 3092 3094 3097 3100 3103 3106 3108 3109 3107 3105 3102 3096 3090 3084 3080 3077 3075 3074 3079 3082 3086 3091
3072 3076 3080 3086 3087 3089 3091 3091 3093 3094 3095 3095 3095 3095 3095 3094 3092 3090 3087 3085 3083 3084 3086 3088 3092 3096 3099 3102 3103 3104 3103 3101 3097 3092 3085 3080 3074 3069 3069 3072 3072 3076 3079 3082
3071 3074 3076 3079 3081 3084 3086 3088 3089 3090 3091 3091 3091 3092 3090 3089 3088 3087 3085 3084 3083 3084 3084 3085 3088 3092 3095 3097 3098 3099 3099 3097 3094 3092 3088 3082 3074 3068 3065 3067 3069 3072 3075 3078
3063 3066 3069 3074 3078 3081 3083 3083 3085 3087 3087 3087 3087 3087 3086 3086 3086 3085 3085 3085 3085 3085 3086 3087 3088 3090 3091 3092 3093 3095 3096 3097 3094 3093 3091 3087 3080 3074 3073 3069 3065 3067 3067 3071